Flight Track Log - Related Links

Times and Time Zones

All times are in EST time to prevent confusion due to time zone crossing. See the SWA1496 flight status page for this flight to view local times or setup timezone preferences in your user account.


Time Position Orientation Groundspeed Altitude Reporting Facility
EST Latitude Longitude Course Direction KTS MPH feet Rate Location/Type
Wed 09:36:45 PM 39.8461 -104.5028 114° Southeast 237 273 9,600  Level Denver Center
Wed 09:37:46 PM 39.8103 -104.3978 114° Southeast 312 359 10,900 2,537 Climbing Denver Center
Wed 09:38:48 PM 39.7672 -104.2825 116° Southeast 352 405 14,800 3,707 Climbing Denver Center
Wed 09:39:49 PM 39.7186 -104.1497 115° Southeast 375 432 18,500 3,541 Climbing Denver Center
Wed 09:40:50 PM 39.6728 -104.0208 115° Southeast 392 451 22,000 2,951 Climbing Denver Center
Wed 09:41:51 PM 39.6289 -103.9031 116° Southeast 403 464 24,500 2,262 Climbing Denver Center
Wed 09:42:52 PM 39.5900 -103.7947 115° Southeast 414 476 26,600 2,439 Climbing Denver Center
Wed 09:43:54 PM 39.5467 -103.6200 108° East 423 487 29,500 2,146 Climbing Denver Center
Wed 09:44:55 PM 39.4975 -103.4408 110° East 439 505 31,000 732 Climbing Denver Center
Wed 09:45:57 PM 39.4558 -103.2925 110° East 439 505 31,000 780 Level Denver Center
Wed 09:46:58 PM 39.3992 -103.1506 117° Southeast 443 510 32,600 1,967 Climbing Denver Center
Wed 09:47:59 PM 39.3419 -103.0069 117° Southeast 447 514 35,000 1,854 Climbing Denver Center
Wed 09:49:01 PM 39.2864 -102.8642 117° Southeast 446 513 36,400 1,415 Climbing Denver Center
Wed 09:50:02 PM 39.2261 -102.7153 118° Southeast 456 525 37,900 1,525 Climbing Denver Center
Wed 09:51:03 PM 39.1606 -102.5522 117° Southeast 458 527 39,500 1,082 Climbing Denver Center
Wed 09:52:04 PM 39.1044 -102.4114 117° Southeast 461 531 40,100 585 Climbing Denver Center
Wed 09:53:06 PM 39.0458 -102.2658 117° Southeast 475 547 40,700 439 Climbing Denver Center
Wed 09:54:07 PM 38.9758 -102.0936 118° Southeast 485 558 41,000 148 Climbing Denver Center
Wed 09:55:08 PM 38.9164 -101.9447 117° Southeast 490 564 41,000  Level Denver Center
Wed 09:56:10 PM 38.8456 -101.7711 118° Southeast 491 565 41,000  Level Denver Center
Wed 09:57:11 PM 38.7856 -101.6242 118° Southeast 488 562 41,000  Level Denver Center
Wed 09:58:12 PM 38.7250 -101.4767 118° Southeast 488 562 41,000  Level Denver Center
Wed 09:59:13 PM 38.6542 -101.3047 118° Southeast 489 563 41,000  Level Denver Center
Wed 10:00:15 PM 38.5922 -101.1592 119° Southeast 487 560 41,000  Level Denver Center
Wed 10:01:16 PM 38.5308 -101.0133 118° Southeast 487 560 41,000  Level Denver Center
Wed 10:02:17 PM 38.4597 -100.8450 118° Southeast 481 554 41,000  Level Denver Center
Wed 10:03:02 PM 38.4186 -100.7464 118° Southeast 483 556 41,000  Level Kansas City Center
Wed 10:04:03 PM 38.3472 -100.5767 118° Southeast 483 556 41,000  Level Kansas City Center
Wed 10:05:04 PM 38.2847 -100.4325 119° Southeast 484 557 41,000  Level Kansas City Center
Wed 10:06:05 PM 38.2242 -100.2886 118° Southeast 482 555 41,000  Level Kansas City Center
Wed 10:07:06 PM 38.1514 -100.1194 119° Southeast 484 557 41,000  Level Kansas City Center
Wed 10:08:07 PM 38.0875 -99.9753 119° Southeast 486 559 41,000  Level Kansas City Center
Wed 10:09:08 PM 38.0250 -99.8308 119° Southeast 486 559 41,000  Level Kansas City Center
Wed 10:10:09 PM 37.9517 -99.6628 119° Southeast 486 559 41,000  Level Kansas City Center
Wed 10:11:09 PM 37.8889 -99.5192 119° Southeast 486 559 41,000  Level Kansas City Center
Wed 10:12:10 PM 37.8192 -99.3625 119° Southeast 486 559 41,000  Level Kansas City Center
Wed 10:13:11 PM 37.7550 -99.2144 119° Southeast 484 557 41,000  Level Kansas City Center
Wed 10:14:12 PM 37.6886 -99.0661 119° Southeast 485 558 41,000  Level Kansas City Center
Wed 10:15:13 PM 37.6228 -98.9183 119° Southeast 485 558 41,000  Level Kansas City Center
Wed 10:16:14 PM 37.5550 -98.7697 120° Southeast 488 562 41,000  Level Kansas City Center
Wed 10:17:15 PM 37.4869 -98.6217 120° Southeast 490 564 41,000 -149 Level Kansas City Center
Wed 10:18:15 PM 37.4206 -98.4742 120° Southeast 490 564 40,700 -645 Descending Kansas City Center
Wed 10:19:16 PM 37.3531 -98.3256 120° Southeast 491 565 39,700 -984 Descending Kansas City Center
Wed 10:20:17 PM 37.2853 -98.1778 120° Southeast 491 565 38,700 -934 Descending Kansas City Center
Wed 10:21:18 PM 37.2175 -98.0317 120° Southeast 490 564 37,800 -934 Descending Kansas City Center
Wed 10:22:19 PM 37.1497 -97.8836 120° Southeast 490 564 36,800 -1,140 Descending Kansas City Center
Wed 10:23:19 PM 37.0700 -97.7086 120° Southeast 486 559 35,500 -1,438 Descending Kansas City Center
Wed 10:24:20 PM 37.0039 -97.5689 121° Southeast 475 547 33,900 -2,213 Descending Kansas City Center
Wed 10:25:21 PM 36.9394 -97.4278 120° Southeast 471 542 31,000 -3,049 Descending Kansas City Center
Wed 10:26:22 PM 36.8764 -97.2900 120° Southeast 461 531 27,700 -3,273 Descending Kansas City Center
Wed 10:27:22 PM 36.8161 -97.1628 121° Southeast 460 529 24,400 -3,273 Descending Kansas City Center
Wed 10:28:23 PM 36.7522 -97.0317 121° Southeast 443 510 21,100 -3,246 Descending Kansas City Center
Wed 10:29:24 PM 36.6897 -96.9006 121° Southeast 440 506 17,800 -3,080 Descending Kansas City Center
Wed 10:30:16 PM 36.6286 -96.7794 122° Southeast 426 490 15,300 -3,000 Descending Kansas City Center
Wed 10:30:22 PM 36.6186 -96.7597 122° Southeast 422 486 14,900 -667 Descending Kansas City Center
Wed 10:30:25 PM 36.6283 -96.7742 310° West 431 496 15,200 -2,754 Climbing Kansas City Center
Wed 10:31:23 PM 36.5611 -96.6394 122° Southeast 405 466 12,100 -2,800 Descending Kansas City Center
Wed 10:31:25 PM 36.5706 -96.6525 312° West 416 479 12,400 -1,770 Climbing Kansas City Center
Wed 10:32:24 PM 36.5081 -96.5264 122° Southeast 380 437 10,300 -2,066 Descending Kansas City Center
Wed 10:32:26 PM 36.5150 -96.5361 312° West 399 459 10,300 -900 Level Kansas City Center
Wed 10:33:24 PM 36.4586 -96.4339 124° Southeast 295 339 9,400 -787 Descending Kansas City Center
Wed 10:33:27 PM 36.4653 -96.4417 317° Northwest 346 398 9,500 -1,594 Climbing Kansas City Center
Wed 10:34:28 PM 36.4117 -96.3425 124° Southeast 296 341 7,700 -1,688 Descending Kansas City Center
Wed 10:34:31 PM 36.4094 -96.3439 207° Southwest 281 323 7,700 -1,800 Level Kansas City Center
Wed 10:35:28 PM 36.3683 -96.2614 122° Southeast 285 328 5,900 -1,900 Descending Kansas City Center
Wed 10:35:31 PM 36.3625 -96.2564 145° Southeast 282 325 5,800 -1,475 Descending Kansas City Center
Wed 10:36:29 PM 36.3256 -96.1825 122° Southeast 279 321 4,400 -1,475 Descending Kansas City Center
Wed 10:36:32 PM 36.3203 -96.1789 151° Southeast 274 315 4,300 -393 Descending Kansas City Center
Wed 10:37:30 PM 36.2864 -96.1103 121° Southeast 262 302 4,000 -295 Descending Kansas City Center
Wed 10:37:33 PM 36.2831 -96.1083 155° Southeast 241 277 4,000 -952 Level Kansas City Center
Wed 10:38:33 PM 36.2483 -96.0428 123° Southeast 221 254 3,000 -966 Descending Kansas City Center
Wed 10:39:31 PM 36.2186 -95.9858 123° Southeast 221 254 2,100 -885 Descending Kansas City Center
Wed 10:39:34 PM 36.2181 -95.9847 122° Southeast 203 234 2,100 -590 Level Kansas City Center
Wed 10:40:32 PM 36.1953 -95.9394 122° Southeast 188 216 1,500 -600 Descending Kansas City Center
Wed 10:40:34 PM 36.1956 -95.9408 284° West 133 153 1,500 -689 Level Kansas City Center
Wed 10:41:33 PM 36.1967 -95.8892 88° East 160 184 800 -712 Descending Kansas City Center
Wed 10:43:00 PM 36.1984 -95.8881 130° Southeast  Level Estimated

Login

Don't have an account? Register now (free) for customized features, flight alerts, and more!